OPS 4682 DEB, 38425

Orbit data source: Space-Track

OPS 4682 DEB, 38425 is space debris in LEO originally from a launch on Sat, 03 Apr 1965 UTC launched from the Air Force Western Test Range (AFWTR). Debris objects in space refer to the collection of defunct objects orbiting the Earth. Examples of debris include non-operational satellites, rocket bodies, and fragments generated from explosions, collisions, or faulty payload assembly.

Loading next visibility...
Identifier
38425, 1965-027EE
Orbit
LEO
Country
Flag of USUS
Related business
Manufacturer
Unknown
Mission
Spacecraft
Bus & Motor
Unknown
Mass
Unknown
Launch date (UTC)
1965-04-03 (61 years ago)
Launch vehicle
Unknown
Launch site
Air Force Western Test Range (AFWTR)
Object type
Payload
Rocket body
Debris
Shape & HBR
Unknown shape, 0.1 m
Radar Cross Section
Small (<0.1 m²)

Expand to show TLE details & history
Last TLE update: 1 day ago

TLE from 1 day ago
0 OPS 4682 DEB
1 38425U 65027EE  26103.17896648  .00000634  00000-0  22221-2 0  9997
2 38425  90.2488   6.2570 0038997  40.2485 320.1510 12.95156635654149
Epoch: 2026-04-13T04:17Z
TLE epoch observation values (Epoch: 2026-04-13T04:17:42.703Z)
Latitude
-0.00006°
Longitude
100.45578°
Altitude
1,261.111 km
Speed
7.236 km/s
True Right ascension
00h 25m 01s
True Declination
0° 00' 00"
Sunlit
Object was in daylight at epoch
Visualization orbit readout
Latitude
Unknown
Longitude
Unknown
Altitude
Unknown
Speed
Unknown
Apparent Right ascension
Unknown
Apparent Declination
Unknown
Sunlit
N/A
Visualization observer readout
Local Sidereal Time
18:58:14
Azimuth
Unknown
Elevation
Unknown
Doppler factor
Unknown
Orbital elements
Apogee altitude
1,308.114 km
Perigee altitude
1,248.399 km
Semi-major axis
7,656.393 km
Eccentricity
0.0039
Inclination
90.2488°
RAAN
6.257°
Arg. of periapsis
40.2485°
True anomaly
319.86358°
Mean anomaly
320.151°
Eccentric anomaly
320.0074°
Mean motion
3.23971 °/min
Orbital period
111.12 mins
BSTAR
0.0022221
Loading maneuver chart data...
Computing Atmospheric mass density...
Loading historical data...
Loading historical data...
Loading historical data...
Loading historical data...
Loading historical data...
Loading historical data...
Loading historical data...

Documentation

Showing up to 5 results
|